Falls City, NE

2:08 PM CST on January 20, 2017 (GMT -0600)
Brenner

Weather History for KFNB - January, 2013

Change the Weather History Date:

Saturday, January 12, 2013

  Actual Average Record
Temperature  
Mean Temperature 24 °F -  
Max Temperature 33 °F 33 °F 63 °F (1986)
Min Temperature 15 °F 13 °F -20 °F (1974)
Degree Days  
Heating Degree Days 40    
Moisture  
Dew Point 13 °F    
Average Humidity 63    
Maximum Humidity 81    
Minimum Humidity 47    
Precipitation  
Precipitation 0.00 in - - ()
Sea Level Pressure  
Sea Level Pressure 30.04 in    
Wind  
Wind Speed 14 mph (NW)    
Max Wind Speed 22 mph    
Max Gust Speed 30 mph    
Visibility 10 miles    
Events      
Averages and records for this station are not official NWS values.
T = Trace of Precipitation, MM = Missing Value Source: NWS Daily Summary

Daily Weather History Graph

Daily Weather History Graph

Search for Another Location

Airport or City:

Trip Planner

Search our weather history database for the weather conditions in past years. The results will help you decide how hot, cold, wet, or windy it might be!

Date:

Astronomy

Jan. 12, 2013 Rise Set
Actual Time 7:43 AM CST 5:18 PM CST
Civil Twilight 7:13 AM CST 5:48 PM CST
Nautical Twilight 6:40 AM CST 6:21 PM CST
Astronomical Twilight 6:07 AM CST 6:54 PM CST
Moon 8:03 AM CST (1/12) 6:48 PM CST (1/12)
Length of Visible Light 10h 34m
Length of Day
9h 35m
New Moon, 1% of the Moon is Illuminated
Jan 12
New Moon
Jan 18
First Quarter
Jan 26
Full
Feb 3
Last Quarter
Feb 10
New

Hourly Weather History & Observations

Time (CST) Temp. Windchill Dew Point Humidity Pressure Visibility Wind Dir Wind Speed Gust Speed Precip Events Conditions
12:19 AM 33.8 °F 22.8 °F 28.4 °F 81% 29.78 in 10.0 mi WNW 18.4 mph 26.5 mph N/A   Overcast
12:53 AM 32.0 °F 20.5 °F 25.0 °F 75% 29.83 in 10.0 mi West 18.4 mph - N/A   Overcast
1:23 AM 30.2 °F 17.1 °F 21.2 °F 69% 29.84 in 10.0 mi WNW 21.9 mph 29.9 mph N/A   Scattered Clouds
1:53 AM 28.9 °F 17.3 °F 21.0 °F 72% 29.89 in 10.0 mi NW 16.1 mph 21.9 mph N/A   Clear
2:17 AM 28.4 °F 18.5 °F 21.2 °F 74% 29.89 in 10.0 mi NW 11.5 mph 19.6 mph N/A   Mostly Cloudy
2:53 AM 28.9 °F 19.8 °F 19.9 °F 69% 29.94 in 10.0 mi WNW 10.4 mph - N/A   Overcast
3:30 AM 26.6 °F 16.2 °F 15.8 °F 64% 29.94 in 10.0 mi WNW 11.5 mph 21.9 mph N/A   Scattered Clouds
3:53 AM 26.1 °F 15.0 °F 15.1 °F 63% 29.97 in 10.0 mi WNW 12.7 mph 21.9 mph N/A   Clear
4:53 AM 24.1 °F 13.1 °F 16.0 °F 71% 29.99 in 10.0 mi WNW 11.5 mph - N/A   Clear
5:53 AM 23.0 °F 13.1 °F 12.0 °F 63% 30.02 in 10.0 mi WNW 9.2 mph 18.4 mph N/A   Clear
6:53 AM 21.9 °F 14.5 °F 12.0 °F 66% 30.05 in 10.0 mi NW 5.8 mph - N/A   Clear
7:53 AM 19.9 °F 12.1 °F 12.9 °F 74% 30.07 in 10.0 mi WNW 5.8 mph - N/A   Clear
8:53 AM 23.0 °F 13.9 °F 14.0 °F 68% 30.09 in 10.0 mi NW 8.1 mph - N/A   Clear
9:53 AM 23.0 °F 9.2 °F 10.0 °F 58% 30.10 in 10.0 mi NW 17.3 mph - N/A   Clear
10:53 AM 23.0 °F 14.7 °F 10.9 °F 60% 30.14 in 10.0 mi WNW 6.9 mph 17.3 mph N/A   Clear
11:53 AM 23.0 °F 13.9 °F 9.0 °F 55% 30.12 in 10.0 mi NW 8.1 mph 20.7 mph N/A   Clear
12:53 PM 23.0 °F 9.6 °F 7.0 °F 50% 30.07 in 10.0 mi NW 16.1 mph - N/A   Overcast
1:53 PM 24.1 °F 13.7 °F 8.1 °F 51% 30.09 in 10.0 mi NW 10.4 mph - N/A   Mostly Cloudy
2:53 PM 27.0 °F 16.1 °F 9.0 °F 47% 30.08 in 10.0 mi NNW 12.7 mph 21.9 mph N/A   Mostly Cloudy
3:53 PM 24.1 °F 13.7 °F 8.1 °F 51% 30.11 in 10.0 mi North 10.4 mph - N/A   Mostly Cloudy
4:53 PM 24.1 °F 12.5 °F 9.0 °F 53% 30.12 in 10.0 mi NNW 12.7 mph - N/A   Overcast
5:53 PM 21.9 °F 11.0 °F 9.0 °F 58% 30.15 in 10.0 mi NNW 10.4 mph - N/A   Overcast
6:53 PM 21.9 °F 11.0 °F 9.0 °F 58% 30.14 in 10.0 mi North 10.4 mph - N/A   Mostly Cloudy
7:53 PM 21.0 °F 8.1 °F 9.0 °F 60% 30.13 in 10.0 mi NNW 13.8 mph 18.4 mph N/A   Mostly Cloudy
8:53 PM 19.0 °F 6.1 °F 8.1 °F 62% 30.14 in 10.0 mi NNW 12.7 mph 19.6 mph N/A   Partly Cloudy
9:53 PM 18.0 °F 6.9 °F 9.0 °F 68% 30.15 in 10.0 mi NW 9.2 mph - N/A   Clear
10:53 PM 16.0 °F 2.9 °F 7.0 °F 68% 30.14 in 10.0 mi NW 11.5 mph 19.6 mph N/A   Clear
11:53 PM 15.1 °F 2.5 °F 6.1 °F 68% 30.16 in 10.0 mi NW 10.4 mph - N/A   Clear